Regional Weather Roundup
Issued by NWS Albany, NY

Home | Current Version | Previous Version | Graphics & Text | Print | Product List | Glossary On
Versions: 1 2 3 4 5 6 7 8 9 10 11 12 13 14 15 16 17 18 19 20 21 22 23 24 25 26 27 28 29 30 31 32 33 34 35 36 37 38 39 40 41 42 43 44 45 46 47 48 49 50
000
ASUS41 KALY 030410
RWRALY

NEW YORK STATE HOURLY WEATHER ROUNDUP
NATIONAL WEATHER SERVICE ALBANY NY
1200 AM EDT TUE MAY 03 2016

NOTE: "FAIR" INDICATES FEW OR NO CLOUDS BELOW 12,000 FEET WITH NO
SIGNIFICANT WEATHER AND/OR NO OBSTRUCTIONS TO VISIBILITY.

NYZ032-033-038>043-046>054-057>066-NYZ062>081-082-084-030500-
EAST


CITY           SKY/WX    TMP DP  RH WIND       PRES   REMARKS
ALBANY         CLOUDY    48  46  93 CALM      29.95R
GLENS FALLS    MOCLDY    46  44  93 NE5       29.95S
POUGHKEEPSIE   CLOUDY    52  49  89 CALM      29.94R
NEWBURGH       MOCLDY    52  52 100 E9        29.95R
MONTGOMERY     CLOUDY    52  50  93 CALM      29.93F
WHITE PLAINS   CLOUDY    52  50  93 N3        29.92F FOG
ISLIP          CLOUDY    51  49  92 CALM      29.94S
NEW YORK CITY  CLOUDY    57  50  77 S6        29.94R
CENTRAL PARK   LGT RAIN  57  52  83 CALM      29.97R
$$

NYZ005>009-017-018-044>046-055-056-030500-
CENTRAL


CITY           SKY/WX    TMP DP  RH WIND       PRES   REMARKS
FULTON         CLOUDY    44  40  85 N5        29.97F
SYRACUSE       CLOUDY    44  42  93 CALM      29.96F
ROME           CLOUDY    46  44  93 CALM      29.98S
ELMIRA         CLOUDY    47  41  80 CALM      29.98R
BINGHAMTON     LGT RAIN  43  39  86 NE6       29.94F
MONTICELLO     CLOUDY    46  45  93 CALM      29.96S
$$

NYZ026>034-041>043-087-030500-
NORTH


CITY           SKY/WX    TMP DP  RH WIND       PRES   REMARKS
WATERTOWN      FOG       37  37 100 CALM      29.98S VSB 1/4
FORT DRUM      NOT AVBL
MASSENA        CLOUDY    44  42  93 CALM      30.00S
SARANAC LAKE   CLOUDY    41  38  89 CALM      29.93S
PLATTSBURGH    NOT AVBL
$$

NYZ001>004-010>016-019>021-085-030500-
WEST


CITY           SKY/WX    TMP DP  RH WIND       PRES   REMARKS
NIAGARA FALLS  CLEAR     41  37  86 CALM      29.95F
BUFFALO        CLOUDY    44  40  85 CALM      29.95F
DUNKIRK        CLOUDY    39  38  96 CALM      29.96S
JAMESTOWN      CLOUDY    45  39  81 NE3       29.93S
WELLSVILLE     CLOUDY    44  42  93 E7        29.95S FOG
ROCHESTER      CLOUDY    42  40  92 CALM      29.97F
PENN YAN       CLOUDY    42  41  96 CALM      29.98R
$$

             KEY
       WCI = WIND CHILL INDEX
       VSB = VISIBILITY
       HX  = HEAT INDEX
$$



USA.gov is the U.S. government's official web portal to all federal, state and local government web resources and services.